Weather History for KPHN - February, 2013

Change the Weather History Date:

Saturday, February 23, 2013

  Actual Average (KMTC) Record (KMTC)
Temperature  
Mean Temperature 32 °F -  
Max Temperature 37 °F 36 °F 55 °F (1984)
Min Temperature 28 °F 22 °F -6 °F (2015)
Degree Days  
Heating Degree Days 32    
Moisture  
Dew Point 24 °F    
Average Humidity 70    
Maximum Humidity 93    
Minimum Humidity 52    
Precipitation  
Precipitation 0.00 in - - ()
Sea Level Pressure  
Sea Level Pressure 29.87 in    
Wind  
Wind Speed 7 mph (SW)    
Max Wind Speed 12 mph    
Max Gust Speed 23 mph    
Visibility 10 miles    
Events      
Averages and records for this station are not official NWS values.
T = Trace of Precipitation, MM = Missing Value Source: NWS Daily Summary

Daily Weather History Graph

Daily Weather History Graph

Search for Another Location

Airport or City:

Trip Planner

Search our weather history database for the weather conditions in past years. The results will help you decide how hot, cold, wet, or windy it might be!

Date:

Astronomy

Feb. 23, 2013 Rise Set
Actual Time 7:15 AM EST 6:12 PM EST
Civil Twilight 6:46 AM EST 6:40 PM EST
Nautical Twilight 6:13 AM EST 7:13 PM EST
Astronomical Twilight 5:40 AM EST 7:46 PM EST
Moon 4:19 PM EST (2/23) 5:38 AM EST (2/23)
Length of Visible Light 11h 54m
Length of Day
10h 57m
Waxing Gibbous, 95% of the Moon is Illuminated
Feb 23
Waxing Gibbous
Feb 25
Full
Mar 4
Last Quarter
Mar 11
New
Mar 19
First Quarter

Hourly Weather History & Observations

Time (EST) Temp. Windchill Dew Point Humidity Pressure Visibility Wind Dir Wind Speed Gust Speed Precip Events Conditions
12:18 AM 35.6 °F 29.9 °F 33.8 °F 93% 29.88 in 5.0 mi SSW 6.9 mph - N/A   Overcast
12:38 AM 35.6 °F 29.9 °F 32.0 °F 87% 29.88 in 5.0 mi SSW 6.9 mph - N/A   Overcast
12:58 AM 35.6 °F 29.9 °F 32.0 °F 87% 29.88 in 7.0 mi SSW 6.9 mph - N/A   Overcast
1:18 AM 35.6 °F 28.0 °F 32.0 °F 87% 29.88 in 7.0 mi SSW 10.4 mph - N/A   Overcast
1:38 AM 35.6 °F 29.2 °F 32.0 °F 87% 29.88 in 7.0 mi SSW 8.1 mph 16.1 mph N/A   Overcast
1:58 AM 35.6 °F 29.9 °F 32.0 °F 87% 29.88 in 10.0 mi SSW 6.9 mph - N/A   Overcast
2:18 AM 35.6 °F 29.2 °F 32.0 °F 87% 29.87 in 10.0 mi SSW 8.1 mph - N/A   Overcast
2:38 AM 35.6 °F 30.7 °F 32.0 °F 87% 29.88 in 10.0 mi SW 5.8 mph - N/A   Overcast
2:58 AM 35.6 °F 29.9 °F 30.2 °F 81% 29.87 in 10.0 mi SSW 6.9 mph - N/A   Overcast
3:18 AM 33.8 °F 27.7 °F 30.2 °F 87% 29.87 in 10.0 mi SSW 6.9 mph - N/A   Overcast
3:38 AM 33.8 °F 27.7 °F 30.2 °F 87% 29.87 in 10.0 mi South 6.9 mph - N/A   Overcast
3:58 AM 33.8 °F 27.7 °F 30.2 °F 87% 29.87 in 10.0 mi SSW 6.9 mph - N/A   Overcast
4:18 AM 33.8 °F 27.7 °F 30.2 °F 87% 29.86 in 7.0 mi SSW 6.9 mph - N/A   Overcast
4:38 AM 33.8 °F 29.6 °F 30.2 °F 87% 29.86 in 10.0 mi SSW 4.6 mph - N/A   Overcast
4:58 AM 33.8 °F 29.6 °F 30.2 °F 87% 29.86 in 10.0 mi SSW 4.6 mph - N/A   Overcast
5:18 AM 33.8 °F 28.6 °F 30.2 °F 87% 29.86 in 10.0 mi SSW 5.8 mph - N/A   Overcast
5:38 AM 33.8 °F 27.0 °F 30.2 °F 87% 29.86 in 10.0 mi SSW 8.1 mph - N/A   Overcast
5:58 AM 33.8 °F 27.7 °F 28.4 °F 81% 29.86 in 10.0 mi SW 6.9 mph - N/A   Overcast
6:18 AM 33.8 °F 27.0 °F 28.4 °F 81% 29.86 in 10.0 mi SW 8.1 mph - N/A   Overcast
6:38 AM 33.8 °F 27.0 °F 24.8 °F 70% 29.86 in 10.0 mi SW 8.1 mph 16.1 mph N/A   Overcast
6:58 AM 33.8 °F 25.8 °F 23.0 °F 65% 29.87 in 10.0 mi SW 10.4 mph 23.0 mph N/A   Overcast
7:18 AM 32.0 °F 24.2 °F 23.0 °F 69% 29.87 in 10.0 mi SW 9.2 mph - N/A   Overcast
7:39 AM 32.0 °F 24.8 °F 23.0 °F 69% 29.88 in 10.0 mi SW 8.1 mph - N/A   Overcast
7:58 AM 32.0 °F 27.5 °F 23.0 °F 69% 29.89 in 10.0 mi SW 4.6 mph - N/A   Overcast
8:18 AM 32.0 °F 25.6 °F 23.0 °F 69% 29.89 in 10.0 mi SW 6.9 mph - N/A   Overcast
8:39 AM 32.0 °F 25.6 °F 21.2 °F 64% 29.89 in 10.0 mi WSW 6.9 mph - N/A   Overcast
8:58 AM 32.0 °F 24.2 °F 21.2 °F 64% 29.88 in 10.0 mi SW 9.2 mph - N/A   Overcast
9:19 AM 32.0 °F 25.6 °F 21.2 °F 64% 29.88 in 10.0 mi SW 6.9 mph - N/A   Overcast
9:38 AM 32.0 °F 25.6 °F 21.2 °F 64% 29.88 in 10.0 mi SW 6.9 mph - N/A   Overcast
9:58 AM 33.8 °F 26.4 °F 21.2 °F 60% 29.88 in 10.0 mi SW 9.2 mph - N/A   Overcast
10:18 AM 33.8 °F 27.0 °F 23.0 °F 65% 29.88 in 10.0 mi WSW 8.1 mph - N/A   Overcast
10:38 AM 33.8 °F 25.8 °F 23.0 °F 65% 29.88 in 10.0 mi SW 10.4 mph 16.1 mph N/A   Overcast
10:59 AM 33.8 °F 28.6 °F 23.0 °F 65% 29.88 in 10.0 mi SW 5.8 mph 16.1 mph N/A   Overcast
11:18 AM 33.8 °F 25.3 °F 23.0 °F 65% 29.87 in 10.0 mi SW 11.5 mph 16.1 mph N/A   Overcast
11:38 AM 35.6 °F 28.6 °F 23.0 °F 60% 29.87 in 10.0 mi WSW 9.2 mph - N/A   Overcast
11:58 AM 35.6 °F 30.7 °F 23.0 °F 60% 29.87 in 10.0 mi WSW 5.8 mph 16.1 mph N/A   Overcast
12:18 PM 33.8 °F 27.0 °F 23.0 °F 65% 29.88 in 10.0 mi SW 8.1 mph 16.1 mph N/A   Overcast
12:38 PM 35.6 °F 30.7 °F 23.0 °F 60% 29.87 in 10.0 mi WSW 5.8 mph - N/A   Overcast
12:58 PM 33.8 °F 27.7 °F 23.0 °F 65% 29.86 in 10.0 mi SW 6.9 mph - N/A   Overcast
1:19 PM 33.8 °F 28.6 °F 23.0 °F 65% 29.86 in 10.0 mi SSW 5.8 mph - N/A   Overcast
1:38 PM 35.6 °F 31.7 °F 23.0 °F 60% 29.86 in 10.0 mi SW 4.6 mph - N/A   Overcast
1:58 PM 35.6 °F 29.9 °F 23.0 °F 60% 29.86 in 10.0 mi WSW 6.9 mph - N/A   Overcast
2:18 PM 35.6 °F 28.6 °F 23.0 °F 60% 29.85 in 10.0 mi West 9.2 mph - N/A   Overcast
2:38 PM 35.6 °F 29.9 °F 21.2 °F 56% 29.85 in 10.0 mi WSW 6.9 mph - N/A   Overcast
2:58 PM 37.4 °F 30.8 °F 21.2 °F 52% 29.85 in 10.0 mi SW 9.2 mph - N/A   Overcast
3:18 PM 35.6 °F 29.9 °F 21.2 °F 56% 29.86 in 10.0 mi SW 6.9 mph - N/A   Overcast
3:38 PM 35.6 °F 31.7 °F 21.2 °F 56% 29.86 in 10.0 mi WSW 4.6 mph - N/A   Overcast
3:59 PM 35.6 °F 29.2 °F 21.2 °F 56% 29.86 in 10.0 mi West 8.1 mph - N/A   Overcast
4:18 PM 33.8 °F 29.6 °F 21.2 °F 60% 29.86 in 10.0 mi WSW 4.6 mph - N/A   Overcast
4:39 PM 33.8 °F 28.6 °F 21.2 °F 60% 29.86 in 10.0 mi SW 5.8 mph - N/A   Overcast
4:58 PM 33.8 °F 28.6 °F 21.2 °F 60% 29.86 in 10.0 mi WSW 5.8 mph - N/A   Overcast
5:18 PM 33.8 °F 28.6 °F 21.2 °F 60% 29.86 in 10.0 mi SSW 5.8 mph - N/A   Overcast
5:38 PM 33.8 °F 30.8 °F 21.2 °F 60% 29.87 in 10.0 mi WSW 3.5 mph - N/A   Overcast
5:58 PM 33.8 °F - 21.2 °F 60% 29.87 in 10.0 mi Calm Calm - N/A   Overcast
6:18 PM 33.8 °F - 23.0 °F 65% 29.88 in 10.0 mi Calm Calm - N/A   Overcast
6:38 PM 33.8 °F 28.6 °F 21.2 °F 60% 29.88 in 10.0 mi West 5.8 mph - N/A   Overcast
6:58 PM 32.0 °F 28.7 °F 23.0 °F 69% 29.89 in 10.0 mi West 3.5 mph - N/A   Overcast
7:19 PM 32.0 °F - 23.0 °F 69% 29.89 in 10.0 mi Calm Calm - N/A   Overcast
7:38 PM 32.0 °F 28.7 °F 23.0 °F 69% 29.89 in 10.0 mi SW 3.5 mph - N/A   Overcast
7:59 PM 32.0 °F - 23.0 °F 69% 29.89 in 10.0 mi Calm Calm - N/A   Overcast
8:18 PM 32.0 °F 28.7 °F 21.2 °F 64% 29.89 in 10.0 mi West 3.5 mph - N/A   Overcast
8:38 PM 32.0 °F 28.7 °F 23.0 °F 69% 29.89 in 10.0 mi West 3.5 mph - N/A   Overcast
8:58 PM 32.0 °F 27.5 °F 23.0 °F 69% 29.89 in 10.0 mi West 4.6 mph - N/A   Overcast
9:18 PM 32.0 °F 27.5 °F 23.0 °F 69% 29.89 in 10.0 mi WSW 4.6 mph - N/A   Overcast
9:38 PM 30.2 °F 25.4 °F 23.0 °F 75% 29.89 in 10.0 mi West 4.6 mph - N/A   Overcast
9:58 PM 30.2 °F 25.4 °F 21.2 °F 69% 29.89 in 10.0 mi West 4.6 mph - N/A   Overcast
10:18 PM 30.2 °F - 21.2 °F 69% 29.89 in 10.0 mi Calm Calm - N/A   Overcast
10:38 PM 30.2 °F 26.7 °F 21.2 °F 69% 29.89 in 10.0 mi West 3.5 mph - N/A   Overcast
10:58 PM 30.2 °F 23.4 °F 21.2 °F 69% 29.89 in 10.0 mi West 6.9 mph - N/A   Overcast
11:19 PM 30.2 °F 25.4 °F 21.2 °F 69% 29.88 in 10.0 mi West 4.6 mph - N/A   Overcast
11:38 PM 28.4 °F 22.2 °F 21.2 °F 74% 29.88 in 10.0 mi West 5.8 mph - N/A   Overcast
11:58 PM 28.4 °F 23.3 °F 21.2 °F 74% 29.87 in 10.0 mi West 4.6 mph - N/A   Overcast